Change the Weather History Date:

Sunday, August 25, 2013

  Actual Average Record
Temperature  
Mean Temperature 61 °F -  
Max Temperature 69 °F 67 °F 84 °F (1996)
Min Temperature 53 °F 50 °F 44 °F (1992)
Degree Days  
Heating Degree Days 4    
Growing Degree Days 11 (Base 50)    
Moisture  
Dew Point 50 °F    
Average Humidity 74    
Maximum Humidity 97    
Minimum Humidity 44    
Precipitation  
Precipitation 0.00 in - - ()
Sea Level Pressure  
Sea Level Pressure 29.92 in    
Wind  
Wind Speed 6 mph (WNW)    
Max Wind Speed 12 mph    
Max Gust Speed -    
Visibility 10 miles    
Events      
Averages and records for this station are not official NWS values.
T = Trace of Precipitation, MM = Missing Value Source: NWS Daily Summary

Daily Weather History Graph

Daily Weather History Graph

Search for Another Location

Airport or City:

Trip Planner

Search our weather history database for the weather conditions in past years. The results will help you decide how hot, cold, wet, or windy it might be!

Date:

Astronomy

Aug. 25, 2013 Rise Set
Actual Time 6:22 AM PDT 8:08 PM PDT
Civil Twilight 5:49 AM PDT 8:41 PM PDT
Nautical Twilight 5:09 AM PDT 9:21 PM PDT
Astronomical Twilight 4:24 AM PDT 10:05 PM PDT
Moon 10:13 PM PDT (8/25) 11:58 AM PDT (8/25)
Length of Visible Light 14h 51m
Length of Day
13h 45m
Waning Gibbous, 75% of the Moon is Illuminated
Aug 25
Waning Gibbous
Aug 28
Last Quarter
Sep 5
New
Sep 12
First Quarter
Sep 19
Full

Hourly Weather History & Observations

Time (PDT) Temp. Dew Point Humidity Pressure Visibility Wind Dir Wind Speed Gust Speed Precip Events Conditions
12:53 AM 54.0 °F 53.1 °F 97% 29.94 in 10.0 mi WSW 4.6 mph - N/A   Clear
1:53 AM 54.0 °F 52.0 °F 93% 29.94 in 10.0 mi West 5.8 mph - N/A   Clear
2:53 AM 53.1 °F 51.1 °F 93% 29.94 in 10.0 mi WSW 5.8 mph - N/A   Clear
3:53 AM 53.1 °F 51.1 °F 93% 29.94 in 10.0 mi WNW 4.6 mph - N/A   Partly Cloudy
4:53 AM 53.1 °F 50.0 °F 89% 29.94 in 10.0 mi West 6.9 mph - N/A   Partly Cloudy
5:53 AM 54.0 °F 48.9 °F 83% 29.94 in 10.0 mi West 8.1 mph - N/A   Clear
6:53 AM 54.0 °F 48.9 °F 83% 29.95 in 10.0 mi West 8.1 mph - N/A   Clear
7:53 AM 57.0 °F 48.9 °F 74% 29.95 in 10.0 mi WSW 11.5 mph - N/A   Clear
8:53 AM 61.0 °F 48.9 °F 64% 29.94 in 10.0 mi West 8.1 mph - N/A   Clear
9:53 AM 61.0 °F 51.1 °F 70% 29.95 in 10.0 mi North 5.8 mph - N/A   Clear
10:53 AM 62.1 °F 52.0 °F 70% 29.95 in 10.0 mi Variable 4.6 mph - N/A   Clear
11:53 AM 64.9 °F 48.0 °F 54% 29.94 in 10.0 mi NNE 5.8 mph - N/A   Clear
12:53 PM 62.1 °F 51.1 °F 67% 29.93 in 10.0 mi NNW 6.9 mph - N/A   Clear
1:53 PM 64.9 °F 48.9 °F 56% 29.92 in 10.0 mi NE 6.9 mph - N/A   Clear
2:53 PM 69.1 °F 46.0 °F 44% 29.91 in 10.0 mi NE 5.8 mph - N/A   Clear
3:53 PM 63.0 °F 48.9 °F 60% 29.90 in 10.0 mi North 4.6 mph - N/A   Clear
4:53 PM 62.1 °F 48.9 °F 62% 29.90 in 10.0 mi WNW 5.8 mph - N/A   Mostly Cloudy
5:53 PM 62.1 °F 50.0 °F 65% 29.89 in 10.0 mi NW 5.8 mph - N/A   Partly Cloudy
6:53 PM 62.1 °F 48.9 °F 62% 29.88 in 10.0 mi NW 3.5 mph - N/A   Mostly Cloudy
7:53 PM 61.0 °F 50.0 °F 67% 29.89 in 10.0 mi Calm Calm - N/A   Clear
8:53 PM 59.0 °F 48.0 °F 67% 29.90 in 10.0 mi SW 3.5 mph - N/A   Clear
9:53 PM 53.1 °F 48.0 °F 83% 29.88 in 10.0 mi Calm Calm - N/A   Clear
10:53 PM 54.0 °F 48.9 °F 83% 29.90 in 10.0 mi SSW 4.6 mph - N/A   Clear
11:53 PM 53.1 °F 48.9 °F 86% 29.88 in 10.0 mi SW 6.9 mph - N/A   Clear